IU7LMH-13 Weather Reports


Display with metric or nautical units.
time (UTC)temp
F
wind
direction
speed
MPH
gust
MPH
rain 1hr
in
rain 24hr
in
rain mn
in
humidity
%
barometer
mb
20260503195545 59 270 2.0 2.0 0.00 0.00 0.00 74 1017.9
20260503195337 59 270 2.0 2.0 0.00 0.00 0.00 74 1017.9
20260503195137 59 270 2.0 2.0 0.00 0.00 0.00 73 1017.8
20260503194938 59 292 1.0 2.0 0.00 0.00 0.00 73 1017.9
20260503194340 59 248 1.0 2.0 0.00 0.00 0.00 72 1017.9
20260503194137 59 248 2.0 2.0 0.00 0.00 0.00 72 1018.0
20260503193736 60 270 1.0 2.0 0.00 0.00 0.00 72 1017.8
20260503193540 60 248 1.0 2.0 0.00 0.00 0.00 72 1017.9
20260503193337 60 248 1.0 2.0 0.00 0.00 0.00 72 1017.7
20260503193137 60 248 0.0 0.0 0.00 0.00 0.00 72 1017.6
20260503192939 60 270 0.0 0.0 0.00 0.00 0.00 72 1017.9
20260503192737 60 248 0.0 0.0 0.00 0.00 0.00 72 1017.6
20260503192544 60 248 0.0 0.0 0.00 0.00 0.00 72 1017.6
20260503191938 60 248 0.0 0.0 0.00 0.00 0.00 72 1017.5
20260503191738 60 248 0.0 0.0 0.00 0.00 0.00 72 1017.8
20260503191545 60 248 0.0 0.0 0.00 0.00 0.00 71 1017.6
20260503191338 60 248 0.0 2.0 0.00 0.00 0.00 71 1017.5
20260503190936 60 248 0.0 0.0 0.00 0.00 0.00 71 1017.4
20260503190737 60 248 0.0 0.0 0.00 0.00 0.00 71 1017.5
20260503190542 60 270 0.0 2.0 0.00 0.00 0.00 70 1017.5
20260503190338 60 270 1.0 2.0 0.00 0.00 0.00 70 1017.5
20260503190138 61 270 0.0 2.0 0.00 0.00 0.00 70 1017.5
20260503185938 61 270 2.0 2.0 0.00 0.00 0.00 69 1017.6
20260503185739 61 270 1.0 2.0 0.00 0.00 0.00 69 1017.7
20260503185544 61 248 1.0 2.0 0.00 0.00 0.00 68 1017.5
20260503184938 62 225 1.0 2.0 0.00 0.00 0.00 68 1017.4
20260503184737 62 225 1.0 2.0 0.00 0.00 0.00 68 1017.5
20260503184544 62 225 1.0 2.0 0.00 0.00 0.00 68 1017.6
20260503184338 62 202 1.0 2.0 0.00 0.00 0.00 68 1017.2
20260503184137 62 248 2.0 4.0 0.00 0.00 0.00 67 1017.4
20260503183938 62 225 2.0 2.0 0.00 0.00 0.00 67 1017.3
20260503183739 62 225 2.0 4.0 0.00 0.00 0.00 67 1017.5
20260503183541 62 225 2.0 4.0 0.00 0.00 0.00 67 1017.5
20260503183338 62 225 2.0 4.0 0.00 0.00 0.00 67 1017.4
20260503183138 63 225 2.0 2.0 0.00 0.00 0.00 66 1017.4
20260503182939 63 225 2.0 4.0 0.00 0.00 0.00 66 1017.4
20260503182738 63 225 1.0 2.0 0.00 0.00 0.00 65 1017.5
20260503182139 64 180 2.0 4.0 0.00 0.00 0.00 63 1017.2
20260503181937 64 225 2.0 4.0 0.00 0.00 0.00 63 1017.4
20260503181737 64 180 1.0 2.0 0.00 0.00 0.00 62 1017.2
20260503181544 64 248 2.0 4.0 0.00 0.00 0.00 62 1017.4
20260503181336 64 202 2.0 4.0 0.00 0.00 0.00 62 1017.5
20260503181139 64 202 2.0 2.0 0.00 0.00 0.00 62 1017.3
20260503180937 64 202 2.0 4.0 0.00 0.00 0.00 62 1017.3
20260503180736 65 202 2.0 2.0 0.00 0.00 0.00 61 1017.3
20260503180542 65 180 2.0 4.0 0.00 0.00 0.00 61 1017.3
20260503180339 65 180 2.0 4.0 0.00 0.00 0.00 61 1017.2
20260503180138 65 180 2.0 4.0 0.00 0.00 0.00 61 1017.3
20260503175937 65 180 3.0 4.0 0.00 0.00 0.00 60 1017.3
20260503175543 65 202 3.0 4.0 0.00 0.00 0.00 59 1017.2
20260503175337 66 225 3.0 4.0 0.00 0.00 0.00 58 1017.2
20260503175137 66 158 4.0 7.0 0.00 0.00 0.00 58 1017.2
20260503174937 66 202 4.0 6.0 0.00 0.00 0.00 58 1017.3
20260503174739 66 135 3.0 4.0 0.00 0.00 0.00 58 1017.1
20260503174545 66 135 2.0 4.0 0.00 0.00 0.00 58 1017.3
20260503174337 66 202 3.0 4.0 0.00 0.00 0.00 57 1017.3
20260503174138 66 180 4.0 6.0 0.00 0.00 0.00 56 1017.2
20260503173937 67 180 2.0 4.0 0.00 0.00 0.00 55 1017.1
20260503173541 67 202 2.0 4.0 0.00 0.00 0.00 54 1017.2
20260503173337 67 225 2.0 4.0 0.00 0.00 0.00 55 1017.0
20260503173136 67 112 2.0 4.0 0.00 0.00 0.00 55 1017.1
20260503172937 67 158 2.0 4.0 0.00 0.00 0.00 56 1017.1
20260503172737 67 158 4.0 6.0 0.00 0.00 0.00 54 1017.3
20260503172337 68 180 3.0 4.0 0.00 0.00 0.00 54 1017.3
20260503172137 68 180 3.0 4.0 0.00 0.00 0.00 53 1017.0
20260503171937 68 158 3.0 4.0 0.00 0.00 0.00 53 1017.1
20260503171737 68 158 2.0 4.0 0.00 0.00 0.00 53 1017.1
20260503171543 68 180 5.0 7.0 0.00 0.00 0.00 53 1017.1
20260503171337 69 158 3.0 6.0 0.00 0.00 0.00 52 1016.9
20260503171137 69 202 2.0 4.0 0.00 0.00 0.00 52 1016.9
20260503170937 69 180 3.0 4.0 0.00 0.00 0.00 52 1017.2
20260503170736 69 158 2.0 4.0 0.00 0.00 0.00 51 1017.0
20260503170541 69 180 4.0 6.0 0.00 0.00 0.00 51 1017.1
20260503170139 69 158 4.0 6.0 0.00 0.00 0.00 51 1017.0
20260503160138 71 158 6.0 8.0 0.00 0.00 0.00 52 1016.6
20260503150938 73 112 5.0 8.0 0.00 0.00 0.00 48 1016.4
20260503150737 73 135 4.0 7.0 0.00 0.00 0.00 50 1016.4
20260503150540 73 202 5.0 7.0 0.00 0.00 0.00 48 1016.5
20260503150337 73 180 6.0 9.0 0.00 0.00 0.00 49 1016.3
20260503150137 73 225 4.0 6.0 0.00 0.00 0.00 48 1016.3
20260503140135 74 112 5.0 8.0 0.00 0.00 0.00 41 1016.5
20260503130937 79 315 2.0 4.0 0.00 0.00 0.00 28 1016.9
20260503130737 79 22 4.0 4.0 0.00 0.00 0.00 29 1016.9
20260503130541 79 45 5.0 11.0 0.00 0.00 0.00 29 1016.8
20260503130337 80 292 4.0 11.0 0.00 0.00 0.00 29 1016.8
20260503130138 80 315 5.0 9.0 0.00 0.00 0.00 29 1016.8
20260503120136 79 315 6.0 9.0 0.00 0.00 0.00 30 1017.1
20260503110738 77 112 2.0 6.0 0.00 0.00 0.00 32 1017.2
20260503110338 77 338 8.0 13.0 0.00 0.00 0.00 31 1017.2
20260503110137 77 0 8.0 11.0 0.00 0.00 0.00 32 1017.3
20260503090338 74 0 7.0 11.0 0.00 0.00 0.00 36 1018.0
20260503081542 71 315 9.0 16.0 0.00 0.00 0.00 39 1018.1
20260503081338 71 315 8.0 15.0 0.00 0.00 0.00 38 1018.1
20260503081137 71 270 10.0 15.0 0.00 0.00 0.00 38 1018.2
20260503080736 71 292 9.0 15.0 0.00 0.00 0.00 38 1018.2
20260503080338 71 292 12.0 15.0 0.00 0.00 0.00 39 1018.0
20260503080139 71 292 8.0 13.0 0.00 0.00 0.00 38 1018.1
20260503072937 69 292 5.0 8.0 0.00 0.00 0.00 41 1018.2
20260503072737 69 292 7.0 11.0 0.00 0.00 0.00 41 1018.3
20260503072339 68 292 8.0 11.0 0.00 0.00 0.00 41 1018.2
20260503072138 68 338 8.0 13.0 0.00 0.00 0.00 41 1018.3
20260503071939 68 292 9.0 13.0 0.00 0.00 0.00 41 1018.2
20260503071739 68 270 8.0 11.0 0.00 0.00 0.00 40 1018.1
20260503071544 68 315 11.0 16.0 0.00 0.00 0.00 40 1018.2
20260503071339 68 270 11.0 14.0 0.00 0.00 0.00 41 1018.1
20260503071137 68 292 10.0 15.0 0.00 0.00 0.00 40 1018.2
20260503070937 68 315 8.0 11.0 0.00 0.00 0.00 40 1018.4
20260503070738 68 292 7.0 9.0 0.00 0.00 0.00 41 1018.2
20260503070339 68 292 8.0 15.0 0.00 0.00 0.00 40 1018.1
20260503070136 68 315 11.0 14.0 0.00 0.00 0.00 40 1018.1
20260503060339 63 292 8.0 14.0 0.00 0.00 0.00 47 1018.2
20260503060138 63 292 8.0 14.0 0.00 0.00 0.00 47 1018.1
20260503054937 62 338 8.0 14.0 0.00 0.00 0.00 48 1018.2
20260503054544 61 292 11.0 14.0 0.00 0.00 0.00 47 1018.2
20260503054339 61 292 9.0 14.0 0.00 0.00 0.00 48 1018.2
20260503054138 61 270 11.0 14.0 0.00 0.00 0.00 47 1018.1
20260503053938 61 248 8.0 11.0 0.00 0.00 0.00 48 1018.2
20260503053738 61 270 11.0 15.0 0.00 0.00 0.00 48 1018.1
20260503053542 61 292 9.0 14.0 0.00 0.00 0.00 49 1018.3
20260503053354 60 292 10.0 14.0 0.00 0.00 0.00 49 1018.2
20260503053138 60 292 8.0 11.0 0.00 0.00 0.00 49 1018.1
20260503052936 60 270 8.0 11.0 0.00 0.00 0.00 49 1018.1
20260503052739 60 270 7.0 11.0 0.00 0.00 0.00 50 1018.2
20260503052544 60 270 6.0 11.0 0.00 0.00 0.00 51 1018.2
20260503052138 59 270 8.0 13.0 0.00 0.00 0.00 51 1018.1
20260503051939 59 270 6.0 9.0 0.00 0.00 0.00 53 1018.0
20260503051544 58 270 6.0 11.0 0.00 0.00 0.00 53 1018.1
20260503051339 58 248 8.0 13.0 0.00 0.00 0.00 52 1018.2
20260503051137 58 292 7.0 8.0 0.00 0.00 0.00 52 1018.2
20260503050938 58 292 5.0 8.0 0.00 0.00 0.00 52 1018.2
20260503050737 58 248 6.0 9.0 0.00 0.00 0.00 52 1018.2
20260503050540 58 292 7.0 9.0 0.00 0.00 0.00 52 1018.3
20260503050338 57 270 8.0 13.0 0.00 0.00 0.00 53 1018.2
20260503050138 57 292 4.0 7.0 0.00 0.00 0.00 55 1018.3
20260503045738 56 270 4.0 6.0 0.00 0.00 0.00 56 1018.0
20260503045543 56 292 5.0 8.0 0.00 0.00 0.00 56 1018.2
20260503045339 56 292 4.0 6.0 0.00 0.00 0.00 56 1018.1
20260503044938 55 315 5.0 9.0 0.00 0.00 0.00 56 1018.1
20260503044737 55 248 4.0 8.0 0.00 0.00 0.00 57 1018.1
20260503044543 55 270 4.0 4.0 0.00 0.00 0.00 57 1018.1
20260503044137 54 292 4.0 6.0 0.00 0.00 0.00 58 1018.1
20260503043938 54 292 4.0 7.0 0.00 0.00 0.00 58 1018.1
20260503043738 54 270 6.0 9.0 0.00 0.00 0.00 58 1018.2
20260503043540 53 270 4.0 4.0 0.00 0.00 0.00 60 1017.9
20260503043337 53 292 4.0 6.0 0.00 0.00 0.00 60 1018.0
20260503043136 53 270 5.0 9.0 0.00 0.00 0.00 60 1018.1
20260503042937 53 270 4.0 8.0 0.00 0.00 0.00 61 1018.0
20260503042737 53 270 5.0 11.0 0.00 0.00 0.00 61 1017.9
20260503042544 53 248 6.0 8.0 0.00 0.00 0.00 61 1017.9
20260503042339 53 292 6.0 11.0 0.00 0.00 0.00 61 1017.9
20260503042137 53 292 6.0 9.0 0.00 0.00 0.00 62 1018.0
20260503041938 52 292 5.0 8.0 0.00 0.00 0.00 62 1018.0
20260503041737 52 270 5.0 8.0 0.00 0.00 0.00 62 1017.9
20260503041545 52 292 5.0 8.0 0.00 0.00 0.00 62 1017.9
20260503041403 53 315 4.0 6.0 0.00 0.00 0.00 62 1017.9
20260503041138 53 292 5.0 8.0 0.00 0.00 0.00 62 1017.8
20260503040939 53 270 5.0 8.0 0.00 0.00 0.00 61 1018.0
20260503040739 52 315 5.0 8.0 0.00 0.00 0.00 62 1017.8
20260503040540 52 270 6.0 9.0 0.00 0.00 0.00 62 1017.9
20260503040138 52 270 5.0 8.0 0.00 0.00 0.00 62 1018.1
20260503035937 52 270 5.0 8.0 0.00 0.00 0.00 61 1018.0
20260503035738 52 270 6.0 11.0 0.00 0.00 0.00 61 1018.0
20260503035544 52 270 5.0 7.0 0.00 0.00 0.00 62 1017.9
20260503035338 53 270 6.0 11.0 0.00 0.00 0.00 62 1018.1
20260503035137 53 270 8.0 11.0 0.00 0.00 0.00 61 1018.0
20260503034937 52 270 9.0 14.0 0.00 0.00 0.00 61 1018.0
20260503034737 52 292 6.0 11.0 0.00 0.00 0.00 62 1017.9
20260503034544 52 292 7.0 9.0 0.00 0.00 0.00 62 1018.1
20260503034138 52 292 5.0 8.0 0.00 0.00 0.00 62 1017.9
20260503033739 53 292 8.0 11.0 0.00 0.00 0.00 62 1017.9
20260503033540 53 270 6.0 8.0 0.00 0.00 0.00 61 1018.0
20260503033338 53 270 6.0 9.0 0.00 0.00 0.00 61 1017.8
20260503033138 53 315 7.0 9.0 0.00 0.00 0.00 61 1018.0
20260503032938 53 270 7.0 11.0 0.00 0.00 0.00 61 1017.8
20260503032737 53 292 6.0 8.0 0.00 0.00 0.00 61 1018.0
20260503032545 53 292 7.0 9.0 0.00 0.00 0.00 60 1017.8
20260503032340 53 292 6.0 9.0 0.00 0.00 0.00 60 1017.8
20260503032138 53 315 7.0 9.0 0.00 0.00 0.00 60 1017.9
20260503031938 53 248 6.0 9.0 0.00 0.00 0.00 60 1018.0
20260503031739 53 292 5.0 9.0 0.00 0.00 0.00 60 1018.0
20260503031544 53 270 7.0 11.0 0.00 0.00 0.00 59 1018.1
20260503031339 53 292 7.0 9.0 0.00 0.00 0.00 59 1018.0
20260503031137 53 270 4.0 9.0 0.00 0.00 0.00 60 1018.2
20260503030939 53 270 7.0 11.0 0.00 0.00 0.00 59 1018.0
20260503030339 53 315 6.0 8.0 0.00 0.00 0.00 60 1018.2
20260503030138 53 270 5.0 8.0 0.00 0.00 0.00 61 1018.1
20260503025941 53 292 5.0 7.0 0.00 0.00 0.00 61 1018.2
20260503025738 53 292 5.0 7.0 0.00 0.00 0.00 61 1018.1
20260503025544 53 292 4.0 7.0 0.00 0.00 0.00 61 1018.2
20260503025339 53 270 4.0 6.0 0.00 0.00 0.00 61 1018.3
20260503025138 53 270 4.0 8.0 0.00 0.00 0.00 61 1018.1
20260503024738 53 270 4.0 7.0 0.00 0.00 0.00 61 1018.1
20260503024543 53 292 4.0 6.0 0.00 0.00 0.00 61 1018.2
20260503024341 53 248 4.0 6.0 0.00 0.00 0.00 61 1018.2
20260503024138 53 292 5.0 7.0 0.00 0.00 0.00 60 1018.1
20260503023737 53 315 4.0 7.0 0.00 0.00 0.00 60 1018.1
20260503023541 53 270 6.0 8.0 0.00 0.00 0.00 60 1018.2
20260503023340 53 292 5.0 8.0 0.00 0.00 0.00 60 1018.3
20260503022937 53 292 5.0 11.0 0.00 0.00 0.00 60 1018.2
20260503022737 53 270 6.0 9.0 0.00 0.00 0.00 60 1018.4
20260503022339 53 292 4.0 8.0 0.00 0.00 0.00 60 1018.4
20260503022138 53 292 6.0 9.0 0.00 0.00 0.00 61 1018.3
20260503021739 53 270 5.0 7.0 0.00 0.00 0.00 61 1018.3
20260503021338 53 292 5.0 8.0 0.00 0.00 0.00 61 1018.5
20260503021139 54 292 5.0 7.0 0.00 0.00 0.00 60 1018.5
20260503020938 54 315 8.0 11.0 0.00 0.00 0.00 60 1018.4
20260503020738 54 292 7.0 11.0 0.00 0.00 0.00 59 1018.6
20260503020540 54 292 8.0 11.0 0.00 0.00 0.00 59 1018.6
20260503020337 54 292 5.0 7.0 0.00 0.00 0.00 60 1018.5
20260503020137 54 292 8.0 9.0 0.00 0.00 0.00 59 1018.6
20260503015938 54 248 6.0 9.0 0.00 0.00 0.00 59 1018.6
20260503015737 54 270 5.0 7.0 0.00 0.00 0.00 59 1018.5
20260503015543 54 270 8.0 11.0 0.00 0.00 0.00 59 1018.5
20260503015139 54 270 6.0 9.0 0.00 0.00 0.00 59 1018.6
20260503014937 54 270 6.0 9.0 0.00 0.00 0.00 59 1018.7
20260503014546 54 292 6.0 9.0 0.00 0.00 0.00 59 1018.5
20260503014337 54 270 6.0 11.0 0.00 0.00 0.00 59 1018.6
20260503014139 54 315 8.0 11.0 0.00 0.00 0.00 58 1018.5
20260503013737 54 270 9.0 14.0 0.00 0.00 0.00 58 1018.6
20260503013540 54 292 8.0 11.0 0.00 0.00 0.00 59 1018.6
20260503013337 54 292 8.0 13.0 0.00 0.00 0.00 59 1018.8
20260503013137 54 270 8.0 9.0 0.00 0.00 0.00 59 1018.5
20260503012938 54 292 8.0 11.0 0.00 0.00 0.00 59 1018.6
20260503012337 54 292 7.0 13.0 0.00 0.00 0.00 59 1018.6
20260503012137 54 248 9.0 13.0 0.00 0.00 0.00 60 1018.7
20260503011938 54 270 8.0 13.0 0.00 0.00 0.00 60 1018.8
20260503011542 54 270 10.0 14.0 0.00 0.00 0.00 59 1018.9
20260503011337 54 248 9.0 13.0 0.00 0.00 0.00 60 1019.0
20260503010937 54 315 7.0 11.0 0.00 0.00 0.00 60 1019.0
20260503010736 54 270 6.0 8.0 0.00 0.00 0.00 60 1018.9
20260503010540 54 292 8.0 14.0 0.00 0.00 0.00 60 1019.1
20260503010337 54 292 6.0 9.0 0.00 0.00 0.00 60 1019.0
20260503005936 54 270 7.0 9.0 0.00 0.00 0.00 60 1019.2
20260503005737 54 270 8.0 11.0 0.00 0.00 0.00 60 1019.1
20260503005543 54 270 8.0 11.0 0.00 0.00 0.00 59 1019.0
20260503005336 54 270 8.0 11.0 0.00 0.00 0.00 60 1019.0
20260503005137 54 292 4.0 7.0 0.00 0.00 0.00 60 1019.3
20260503004937 54 248 6.0 11.0 0.00 0.00 0.00 60 1019.3
20260503004737 54 270 5.0 8.0 0.00 0.00 0.00 60 1019.2
20260503004543 54 270 7.0 11.0 0.00 0.00 0.00 60 1019.4
20260503004337 54 270 7.0 9.0 0.00 0.00 0.00 60 1019.4
20260503004136 54 248 4.0 7.0 0.00 0.00 0.00 61 1019.4
20260503003741 54 248 7.0 11.0 0.00 0.00 0.00 60 1019.4
20260503003337 54 292 7.0 11.0 0.00 0.00 0.00 60 1019.5
20260503003139 54 270 6.0 8.0 0.00 0.00 0.00 61 1019.4
20260503002939 54 270 8.0 11.0 0.00 0.00 0.00 60 1019.4
20260503002738 54 270 7.0 9.0 0.00 0.00 0.00 61 1019.4
20260503002546 54 270 6.0 8.0 0.00 0.00 0.00 61 1019.4
20260503002338 54 270 7.0 9.0 0.00 0.00 0.00 60 1019.5
20260503002138 54 270 8.0 11.0 0.00 0.00 0.00 60 1019.6
20260503001938 54 270 7.0 9.0 0.00 0.00 0.00 61 1019.7
20260503001738 54 248 7.0 9.0 0.00 0.00 0.00 61 1019.6
20260503001543 54 315 7.0 9.0 0.00 0.00 0.00 60 1019.5
20260503001339 54 292 6.0 9.0 0.00 0.00 0.00 60 1019.6
20260503001138 54 270 8.0 13.0 0.00 0.00 0.00 61 1019.8
20260503000937 54 248 8.0 9.0 0.00 0.00 0.00 61 1019.7
20260503000738 54 270 5.0 7.0 0.00 0.00 0.00 61 1019.7
20260503000542 54 270 7.0 8.0 0.00 0.00 0.00 61 1019.8
20260503000137 54 270 7.0 8.0 0.00 0.00 0.00 61 1020.0
20260502235937 54 292 7.0 11.0 0.00 0.00 0.00 61 1019.8
20260502235738 54 248 9.0 13.0 0.00 0.00 0.00 61 1019.7
20260502235544 54 292 6.0 9.0 0.00 0.00 0.00 62 1019.9
20260502235338 54 292 7.0 9.0 0.00 0.00 0.00 61 1019.8
20260502234938 54 270 8.0 11.0 0.00 0.00 0.00 61 1019.9
20260502234738 54 248 7.0 9.0 0.00 0.00 0.00 61 1019.8
20260502234137 53 248 5.0 9.0 0.00 0.00 0.00 63 1020.0
20260502233938 53 270 5.0 7.0 0.00 0.00 0.00 64 1020.1
20260502233737 52 270 5.0 7.0 0.00 0.00 0.00 64 1020.1
20260502233540 52 270 4.0 7.0 0.00 0.00 0.00 65 1020.1
20260502233138 52 292 4.0 7.0 0.00 0.00 0.00 65 1020.3
20260502232938 52 270 4.0 6.0 0.00 0.00 0.00 66 1020.3
20260502232737 52 292 4.0 6.0 0.00 0.00 0.00 66 1020.3
20260502232543 52 270 3.0 4.0 0.00 0.00 0.00 66 1020.2
20260502232338 52 270 3.0 6.0 0.00 0.00 0.00 65 1020.4
20260502232137 53 270 4.0 6.0 0.00 0.00 0.00 64 1020.5
20260502231937 53 270 4.0 7.0 0.00 0.00 0.00 63 1020.3
20260502231737 53 270 4.0 6.0 0.00 0.00 0.00 63 1020.7
20260502231542 53 270 5.0 8.0 0.00 0.00 0.00 63 1020.3
20260502231338 53 270 5.0 7.0 0.00 0.00 0.00 63 1020.5
20260502231137 52 270 6.0 9.0 0.00 0.00 0.00 65 1020.5
20260502230937 52 248 4.0 7.0 0.00 0.00 0.00 66 1020.7
20260502230540 52 292 4.0 6.0 0.00 0.00 0.00 66 1020.9
20260502230338 52 292 4.0 6.0 0.00 0.00 0.00 66 1020.6
20260502230137 51 270 6.0 8.0 0.00 0.00 0.00 66 1020.7
20260502225940 51 270 4.0 8.0 0.00 0.00 0.00 67 1020.6
20260502225737 51 292 4.0 7.0 0.00 0.00 0.00 68 1020.8
20260502225544 51 292 4.0 4.0 0.00 0.00 0.00 68 1020.7
20260502225342 51 270 3.0 6.0 0.00 0.00 0.00 69 1020.8
20260502224937 51 292 4.0 7.0 0.00 0.00 0.00 69 1020.8
20260502224543 51 292 3.0 4.0 0.00 0.00 0.00 68 1020.8
20260502224338 51 270 4.0 4.0 0.00 0.00 0.00 68 1020.9
20260502224137 51 292 3.0 4.0 0.00 0.00 0.00 68 1020.9
20260502223938 51 270 4.0 6.0 0.00 0.00 0.00 68 1020.8
20260502223738 51 292 4.0 4.0 0.00 0.00 0.00 68 1020.9
20260502223541 51 270 4.0 6.0 0.00 0.00 0.00 68 1021.0
20260502223338 50 270 4.0 7.0 0.00 0.00 0.00 68 1021.0
20260502223137 50 292 3.0 4.0 0.00 0.00 0.00 68 1021.0
20260502222937 50 292 3.0 4.0 0.00 0.00 0.00 68 1020.8
20260502222738 50 270 4.0 4.0 0.00 0.00 0.00 68 1020.9
20260502222543 50 292 3.0 6.0 0.00 0.00 0.00 68 1020.9
20260502222337 51 270 4.0 7.0 0.00 0.00 0.00 67 1021.1
20260502222137 50 270 4.0 4.0 0.00 0.00 0.00 67 1021.0
20260502221937 50 270 4.0 6.0 0.00 0.00 0.00 67 1020.9
20260502221738 50 270 4.0 8.0 0.00 0.00 0.00 67 1020.9
20260502221338 50 270 2.0 4.0 0.00 0.00 0.00 67 1020.9
20260502221142 50 270 2.0 4.0 0.00 0.00 0.00 66 1021.1
20260502220939 50 292 2.0 4.0 0.00 0.00 0.00 66 1021.0
20260502220739 51 270 2.0 4.0 0.00 0.00 0.00 66 1021.1
20260502220540 51 248 2.0 2.0 0.00 0.00 0.00 65 1021.0
20260502220337 51 270 2.0 4.0 0.00 0.00 0.00 64 1020.8
20260502220158 51 270 3.0 4.0 0.00 0.00 0.00 64 1021.0
20260502215937 51 270 3.0 4.0 0.00 0.00 0.00 64 1021.0
20260502215737 51 270 2.0 4.0 0.00 0.00 0.00 63 1021.0
20260502215543 51 270 3.0 4.0 0.00 0.00 0.00 63 1020.9
20260502215336 51 270 4.0 4.0 0.00 0.00 0.00 63 1021.0
20260502215138 51 248 3.0 4.0 0.00 0.00 0.00 63 1021.1
20260502214937 51 270 3.0 4.0 0.00 0.00 0.00 63 1021.1
20260502214737 51 270 3.0 4.0 0.00 0.00 0.00 63 1021.0
20260502214543 52 270 3.0 4.0 0.00 0.00 0.00 62 1021.0
20260502214338 52 292 2.0 4.0 0.00 0.00 0.00 62 1021.1
20260502214137 52 292 3.0 4.0 0.00 0.00 0.00 61 1021.0
20260502213937 52 270 3.0 4.0 0.00 0.00 0.00 61 1021.1
20260502213737 52 292 3.0 4.0 0.00 0.00 0.00 61 1020.9
20260502213540 52 292 3.0 4.0 0.00 0.00 0.00 61 1020.9
20260502213337 52 292 4.0 6.0 0.00 0.00 0.00 61 1020.9
20260502213137 52 292 3.0 4.0 0.00 0.00 0.00 62 1021.0
20260502212937 52 292 2.0 4.0 0.00 0.00 0.00 62 1020.9
20260502212738 52 270 3.0 4.0 0.00 0.00 0.00 62 1021.1
20260502212542 52 292 3.0 4.0 0.00 0.00 0.00 62 1021.1
20260502212137 51 292 3.0 4.0 0.00 0.00 0.00 62 1020.9
20260502211937 52 292 2.0 2.0 0.00 0.00 0.00 62 1021.0
20260502211738 52 292 4.0 4.0 0.00 0.00 0.00 61 1021.1
20260502211543 52 292 3.0 4.0 0.00 0.00 0.00 61 1021.0
20260502211337 51 292 4.0 6.0 0.00 0.00 0.00 61 1021.2
20260502211138 51 292 3.0 4.0 0.00 0.00 0.00 61 1021.1
20260502210939 51 292 4.0 6.0 0.00 0.00 0.00 61 1021.2
20260502210737 51 292 2.0 2.0 0.00 0.00 0.00 62 1021.2
20260502210540 51 270 2.0 4.0 0.00 0.00 0.00 62 1021.2
20260502210138 51 270 2.0 2.0 0.00 0.00 0.00 62 1021.0
20260502205937 51 292 2.0 4.0 0.00 0.00 0.00 61 1021.2
20260502205543 51 270 3.0 4.0 0.00 0.00 0.00 61 1021.1
20260502205336 51 270 3.0 4.0 0.00 0.00 0.00 61 1021.2
20260502205137 51 292 3.0 4.0 0.00 0.00 0.00 61 1021.1
20260502204938 51 270 3.0 4.0 0.00 0.00 0.00 61 1021.0
20260502204737 50 270 3.0 4.0 0.00 0.00 0.00 62 1021.0
20260502204542 50 292 3.0 4.0 0.00 0.00 0.00 63 1021.0
20260502204338 50 292 2.0 2.0 0.00 0.00 0.00 65 1021.0
20260502204137 50 270 2.0 2.0 0.00 0.00 0.00 65 1021.0
20260502203337 51 292 1.0 2.0 0.00 0.00 0.00 63 1021.1
20260502203138 51 292 1.0 2.0 0.00 0.00 0.00 63 1021.1
20260502202738 51 292 2.0 2.0 0.00 0.00 0.00 62 1021.1
20260502202544 51 292 2.0 2.0 0.00 0.00 0.00 62 1021.3
20260502202337 51 292 2.0 2.0 0.00 0.00 0.00 62 1021.1
20260502202136 51 292 1.0 2.0 0.00 0.00 0.00 62 1021.1
20260502201937 51 292 2.0 2.0 0.00 0.00 0.00 62 1020.9
20260502201737 51 292 2.0 4.0 0.00 0.00 0.00 62 1021.2
20260502200940 51 292 2.0 2.0 0.00 0.00 0.00 63 1021.1
20260502200739 51 292 2.0 2.0 0.00 0.00 0.00 63 1021.2
20260502200541 51 270 2.0 2.0 0.00 0.00 0.00 63 1021.2
20260502200339 51 292 2.0 2.0 0.00 0.00 0.00 64 1021.0
20260502200137 51 292 2.0 2.0 0.00 0.00 0.00 64 1021.1
20260502195937 51 292 2.0 2.0 0.00 0.00 0.00 64 1021.1
20260502195739 51 270 2.0 2.0 0.00 0.00 0.00 63 1021.1